User: anonymous   Login
Location: State Camp
(41.2367°N, 77.7828°W)
Time: 16:32:44
(UTC-04:00)
Language:

ADEOS Rocket - Orbit

View from above orbital plane
View from above orbital plane
View from above satellite
View from above satellite

Ground track
Ground track

The orbit data is extracted from the following two-line orbital elements,

1 24279U 96046C   18144.73951208 +.00000003 +00000-0 +46820-4 0  9999
2 24279 098.7673 051.8500 0300567 138.4538 283.1469 13.47106824069956
Epoch (UTC): 24 May 2018 17:44:53
Eccentricity: 0.0300567
inclination: 98.7673°
perigee height: 858 km
apogee height: 1307 km
right ascension of ascending node: 51.8500°
argument of perigee: 138.4538°
revolutions per day: 13.47106824
mean anomaly at epoch: 283.1469°
orbit number at epoch: 6995

The dashed part of the orbit path shows where the satellite is in the earth's shadow,  

DLR